Location: ????????
(56.1167°N, 38.6333°E)
Time: 20:07:47
(UTC+00:00)

Cosmos 1464 Rocket - Pass Details

Date: 18 November 2025
Orbit: 950 x 1001 km, 82.9° (Epoch: 14 December)

Event Time Altitude Azimuth Distance (km) Brightness Sun altitude
Rises 15:58:41 0° 192° (SSW) 3,688 7.2 -22.6°
Reaches altitude 10° 16:01:12 10° 194° (SSW) 2,736 6.5 -23.0°
Maximum altitude 16:07:30 82° 282° (WNW) 992 4.0 -23.9°
Drops below altitude 10° 16:13:45 10° 11° (N) 2,718 6.2 -24.7°
Sets 16:16:15 0° 12° (NNE) 3,662 6.9 -25.1°
